Home   Weather   Panipat   Past weeks

Flag for India Past Weather in Panipat, Haryana, India — Yesterday and Last 2 Weeks

Now
77 °F

Haze.


Feels Like: 78 °F
Forecast: 76 / 100 °F
Wind: 6 mph from West

Location: New Delhi Palam Airport

Current Time: Apr 25, 2017 at 6:28:45 am

Latest Report: Apr 25, 2017 at 5:30 am


Visibility: 2 mi

Pressure: 29.71 "Hg

Humidity: 42%

Dew Point: 52 °F

Location of PanipatLocation

Past Weather in Panipat — Graph

°F

Panipat Temperature Yesterday

Maximum temperature yesterday: 100 °F (at 3:30 pm)
Minimum temperature yesterday: 79 °F (at 6:00 am)
Average temperature yesterday: 90 °F

High & Low Weather Summary for the Past Weeks

 TemperatureHumidityPressure
High113 °F (Apr 18, 4:00 pm)58% (Apr 18, 6:30 am)29.89 "Hg (Apr 18, 6:30 am)
Low63 °F (Apr 11, 6:30 am)8% (Apr 15, 3:30 pm)29.50 "Hg (Apr 20, 3:30 pm)
Average92 °F26%29.69 "Hg
* Reported Apr 10 4:30 am — Apr 25 5:00 am, Panipat, Weather by CustomWeather, © 2017

Note: Actual official high and low records may vary slightly from our data, if they occured in-between our weather recording intervals... More about our weather records

Advertising

Panipat Weather History for the Previous 24 Hours

Scroll right to see more
 ConditionsComfort  
Time TempWeatherWind HumidityBarometerVisibility
5:00 am
Tue, Apr 25
79 °FHaze.5 mph39%29.71 "Hg2 mi
4:30 am81 °FHaze.5 mph39%29.68 "Hg2 mi
3:00 am82 °FHaze.7 mph35%29.71 "Hg2 mi
2:30 am84 °FHaze.9 mph33%29.71 "Hg2 mi
2:00 am84 °FHaze.12 mph27%29.71 "Hg2 mi
1:30 am86 °FHaze.10 mph25%29.71 "Hg2 mi
1:00 am86 °FHaze.12 mph25%29.74 "Hg2 mi
12:30 am88 °FHaze.5 mph25%29.74 "Hg2 mi
12:00 am88 °FHaze.6 mph25%29.74 "Hg2 mi
11:30 pm
Mon, Apr 24
90 °FHaze.7 mph24%29.74 "Hg2 mi
11:00 pm90 °FHaze.8 mph26%29.74 "Hg2 mi
10:30 pm90 °FHaze.7 mph26%29.74 "Hg2 mi
10:00 pm91 °FHaze.8 mph24%29.74 "Hg2 mi
8:30 pm91 °FHaze.7 mph24%29.71 "Hg2 mi
8:00 pm93 °FHaze.6 mph23%29.68 "Hg2 mi
7:30 pm95 °FHaze.8 mph22%29.68 "Hg2 mi
7:00 pm95 °FHaze.9 mph22%29.68 "Hg2 mi
6:30 pm97 °FHaze.9 mph20%29.68 "Hg2 mi
5:30 pm99 °FHaze.9 mph19%29.65 "Hg2 mi
5:00 pm99 °FHaze.9 mph21%29.65 "Hg2 mi
4:30 pm99 °FHaze.9 mph21%29.65 "Hg2 mi
4:00 pm99 °FHaze.9 mph22%29.65 "Hg3 mi
3:30 pm100 °FHaze.9 mph21%29.65 "Hg3 mi
3:00 pm99 °FHaze.9 mph22%29.68 "Hg3 mi
2:30 pm99 °FHaze.9 mph22%29.68 "Hg3 mi
2:00 pm99 °FHaze.9 mph22%29.71 "Hg3 mi
1:30 pm99 °FHaze.9 mph21%29.74 "Hg3 mi
1:00 pm99 °FHaze.6 mph21%29.74 "Hg3 mi
12:30 pm99 °FHaze.9 mph19%29.74 "Hg3 mi
11:30 am97 °FHaze.7 mph20%29.74 "Hg3 mi
11:00 am95 °FHaze.7 mph25%29.77 "Hg3 mi
10:30 am90 °FHaze.7 mph29%29.77 "Hg3 mi
10:00 am90 °FHaze.7 mph29%29.77 "Hg2 mi
9:30 am88 °FHaze.7 mph31%29.77 "Hg2 mi
9:00 am84 °FHaze.8 mph37%29.74 "Hg2 mi
8:30 am84 °FHaze.3 mph37%29.74 "Hg2 mi
8:00 am82 °FHaze.3 mph40%29.74 "Hg2 mi
7:30 am81 °FHaze.7 mph42%29.71 "Hg2 mi
7:00 am79 °FHaze.8 mph45%29.71 "Hg2 mi
6:30 am79 °FHaze.9 mph45%29.71 "Hg2 mi
6:00 am79 °FHaze.9 mph45%29.71 "Hg2 mi
Weather by CustomWeather, © 2017

See weather overviewHow to use our weather pages